Zurück zum Katalog

TITAN 34D TRANSTAGE R/B

AktivMEO
NORAD 19983·ROCKET BODY·🇺🇸 United States

Gestartet May 10, 1989 von Cape Canaveral Space Force Station

Loading…

Nächste Überflüge (nächste 24 Stunden)

TLE

AktuellSource: Space-Track

Epoche: Sep 13, 2026, 17:13 UTC

1 19983U 89035C   26256.71803092 -.00000419  00000-0  00000-0 0  9991
2 19983   8.2515   5.1997 1060096  58.0487 311.7953  0.99428399 26378

Verfolge TITAN 34D TRANSTAGE R/B in Echtzeit mit AllMySat

Download on the App Store